Location: Unspecified
(0.0000°N, 0.0000°E)
Time: 15:43:32
(UTC+00:00)

Hubble Space Telescope - Pass Details

Date: 01 August 2020
Orbit: 536 x 540 km, 28.5° (Epoch: 08 August)

Event Time Altitude Azimuth Distance (km) Brightness Sun altitude
Exits shadow 04:08:07 30° 113° (ESE) 981 2.4 -28.0°
Drops below altitude 10° 04:10:45 10° 82° (E) 1,782 4.4 -27.4°
Sets 04:13:07 0° 74° (ENE) 2,672 5.6 -26.8°
